User: anonymous   Login
Location: Castro Valley
(37.6940°N, 122.0850°W)
Time: 21:25:37
(UTC-07:00)
Language:

PANSAT - Orbit

View from above orbital plane
View from above orbital plane
View from above satellite
View from above satellite

Ground track
Ground track

The orbit data is extracted from the following two-line orbital elements,

1 25520U 98064B   15091.34547986  .00005307  00000-0  19379-3 0  9990
2 25520 028.4576 078.4512 0004414 044.8374 097.7323 15.25752231910653
Epoch (UTC): 01 April 2015 08:17:29
Eccentricity: 0.0004414
inclination: 28.4576°
perigee height: 485 km
apogee height: 491 km
right ascension of ascending node: 78.4512°
argument of perigee: 44.8374°
revolutions per day: 15.25752231
mean anomaly at epoch: 97.7323°
orbit number at epoch: 91065

The dashed part of the orbit path shows where the satellite is in the earth's shadow,  

DLR